This is the latest recevied weather packets stored in our database for station/object VK2XSE. If no packets are shown the sender has not sent any weather packets the latest 10 day(s).
| Time | Temp. | Humidity | Pressure | Rain* | Wind** | Luminosity | Snow |
|---|---|---|---|---|---|---|---|
| 1777848918 | 13.33° C | 95% | 1016.7 hPa | 0.25 mm | - | 282 W/m² | - |
| 1777848318 | 12.78° C | 95% | 1016.6 hPa | 0.25 mm | - | 258 W/m² | - |
| 1777847718 | 12.78° C | 95% | 1016.5 hPa | 0 mm | - | 101 W/m² | - |
| 1777847118 | 12.22° C | 95% | 1016.5 hPa | 0 mm | - | 32 W/m² | - |
| 1777846518 | 12.22° C | 95% | 1016.4 hPa | 0 mm | - | 30 W/m² | - |
| 1777845918 | 11.67° C | 95% | 1016.4 hPa | 0 mm | - | 29 W/m² | - |
| 1777845318 | 11.11° C | 94% | 1016.4 hPa | 0 mm | - | 26 W/m² | - |
| 1777844718 | 11.11° C | 94% | 1016.3 hPa | 0 mm | - | 38 W/m² | - |
| 1777844118 | 11.11° C | 94% | 1016.2 hPa | 0 mm | - | 18 W/m² | - |
| 1777843518 | 11.11° C | 94% | 1016.1 hPa | 0 mm | - | 12 W/m² | - |
| 1777842918 | 11.11° C | 93% | 1015.9 hPa | 0 mm | - | 9 W/m² | - |
| 1777842318 | 11.11° C | 93% | 1015.9 hPa | 0 mm | - | 0 W/m² | - |
| 1777841718 | 11.11° C | 93% | 1015.9 hPa | 0 mm | - | 0 W/m² | - |
| 1777841118 | 11.11° C | 93% | 1015.8 hPa | 0 mm | - | 0 W/m² | - |
| 1777840518 | 11.11° C | 93% | 1015.6 hPa | 0 mm | - | 0 W/m² | - |
| 1777839918 | 11.11° C | 93% | 1015.6 hPa | 0 mm | - | 0 W/m² | - |
| 1777839318 | 11.11° C | 93% | 1015.4 hPa | 0 mm | - | 0 W/m² | - |
| 1777838718 | 11.67° C | 93% | 1015.3 hPa | 0 mm | - | 0 W/m² | - |
| 1777838118 | 11.67° C | 93% | 1015.3 hPa | 0 mm | - | 0 W/m² | - |
| 1777837518 | 11.67° C | 93% | 1015.4 hPa | 0 mm | - | 0 W/m² | - |
| 1777836918 | 11.67° C | 93% | 1015.4 hPa | 0 mm | - | 0 W/m² | - |
| 1777836318 | 11.67° C | 93% | 1015.2 hPa | 0 mm | - | 0 W/m² | - |
| 1777835718 | 12.22° C | 93% | 1015.2 hPa | 0 mm | - | 0 W/m² | - |
| 1777835118 | 12.22° C | 93% | 1015.2 hPa | 0 mm | - | 0 W/m² | - |
| 1777834518 | 12.22° C | 93% | 1015.1 hPa | 0 mm | - | 0 W/m² | - |
* Rain latest hour (hover to see other rain measurements)
** Current wind speed in m/s (hover to see current wind gust speed)